Wind_Speed
14 13 12 11 8 8 7 8 10 14 16 19 20 19 18 20 19 18 18 18 17 15 13 11 7 4 5 8 12 15 15 17 16 16 15 15 14 12 11 11 10 9 8 8
14 12 13 12 9 7 6 8 10 14 17 20 19 19 19 18 17 16 16 16 15 15 14 10 7 2 3 7 10 13 14 16 16 16 15 15 14 13 12 11 11 11 10 9
13 13 15 14 11 8 5 8 12 15 18 20 21 20 19 16 12 13 13 14 14 14 13 12 8 3 2 5 9 10 12 15 16 16 15 15 14 14 12 12 12 12 11 10
14 16 17 15 13 9 7 9 13 16 17 19 19 20 17 15 11 10 12 13 13 13 13 11 7 3 1 5 7 10 12 14 15 16 15 15 15 14 13 13 13 12 11 11
13 17 18 16 13 10 9 11 14 15 16 18 19 20 16 13 8 9 10 12 12 12 12 9 6 3 1 3 6 9 12 14 15 15 15 15 15 14 13 13 13 12 12 11
13 17 17 16 15 13 11 13 15 16 16 17 19 19 15 10 8 9 10 11 11 11 11 8 5 3 1 2 5 8 12 13 14 15 15 14 15 15 14 14 13 13 13 12
15 17 16 16 15 13 13 15 16 16 16 17 18 17 15 11 9 10 10 11 11 10 8 7 6 3 2 3 5 8 10 12 14 14 14 15 15 15 15 14 14 14 14 13
14 15 17 17 14 13 13 15 16 17 17 18 18 16 16 10 9 9 11 11 11 8 6 6 5 4 3 3 4 7 10 11 12 13 14 15 15 15 15 14 15 15 15 14
14 14 17 18 17 15 15 14 14 17 17 18 17 16 15 11 10 9 9 10 10 7 6 5 5 4 3 3 4 6 9 11 12 13 14 14 15 16 15 15 16 16 16 15
15 15 17 18 19 17 17 15 15 17 18 19 19 17 16 14 13 11 9 9 8 7 4 3 3 3 2 2 3 5 7 9 10 12 13 14 15 15 15 15 16 16 16 17
20 20 18 20 21 20 19 18 17 17 20 21 20 19 16 15 14 12 10 8 7 6 4 3 2 1 1 0 2 2 4 6 9 11 11 13 14 15 16 16 16 16 17 18
25 24 23 21 22 22 23 21 19 20 21 21 21 20 17 16 13 12 10 8 7 6 5 4 3 2 2 2 2 4 5 6 8 9 11 13 14 15 16 17 18 18 19 20
31 30 29 26 25 25 25 24 23 22 22 22 22 21 19 17 15 14 11 10 8 7 6 5 4 4 4 4 4 5 6 7 8 10 11 12 13 14 16 18 19 20 20 21
37 35 32 30 28 27 28 25 24 24 24 23 22 21 19 17 15 14 13 10 8 9 7 5 4 5 5 6 5 6 7 8 9 10 11 13 14 15 16 18 19 21 21 22
41 38 36 34 31 30 30 28 27 25 24 23 22 20 18 16 15 14 12 9 9 8 8 6 6 6 6 7 7 8 9 10 11 12 13 14 15 16 18 19 20 22 23 24
45 44 41 38 35 33 32 30 28 26 25 25 23 20 18 16 15 15 14 12 11 10 9 8 8 7 8 9 10 10 11 12 13 14 14 16 17 18 20 21 22 24 26 27
48 47 45 41 38 36 35 32 30 28 27 27 25 22 20 18 17 16 14 13 13 11 10 10 10 10 10 11 11 12 13 15 15 16 17 18 20 21 22 24 25 26 27 29
49 50 48 46 43 43 37 33 32 31 30 29 27 25 23 21 19 17 16 14 12 11 11 11 12 12 13 13 14 15 16 17 18 19 20 22 22 24 26 26 27 29 30 30
46 47 48 48 46 44 40 36 34 33 33 31 28 27 25 24 20 18 17 15 15 14 13 13 13 14 14 15 16 18 19 20 21 21 23 24 25 26 27 28 29 29 31 31
43 45 47 47 47 46 41 38 35 35 35 32 31 29 27 24 21 18 18 17 17 16 15 15 15 16 17 17 18 19 21 22 23 23 24 26 27 27 28 29 30 31 32 33
38 42 44 45 47 46 42 41 38 37 35 31 30 29 26 23 20 18 17 17 17 17 18 18 18 18 19 19 20 21 22 24 25 26 26 27 27 28 30 30 30 31 32 32
32 37 41 44 46 47 43 39 39 38 35 32 32 30 27 24 21 18 17 17 18 18 19 19 19 20 20 21 22 23 24 25 26 28 28 29 30 30 31 33 34 33 34 35
27 31 35 39 41 40 39 39 37 36 34 31 30 28 26 24 21 18 17 18 19 19 19 20 21 21 22 23 24 25 26 27 28 29 30 31 32 33 34 35 36 36 36 36
21 24 28 30 31 32 34 35 34 33 33 30 28 27 23 21 21 19 18 18 19 20 21 22 22 23 23 24 26 27 28 29 30 31 32 33 34 35 35 36 37 37 37 38
16 19 21 23 24 25 27 28 29 29 27 25 23 23 22 20 19 19 19 19 19 20 21 21 22 23 24 25 26 28 29 30 31 32 33 34 35 35 36 37 38 39 39 40
9 11 15 18 18 19 21 23 23 24 22 21 21 19 19 18 17 17 18 19 19 20 21 22 23 24 25 26 27 29 30 31 32 33 34 35 36 37 38 39 39 40 41 43
Wind_Direction
264 261 257 255 258 271 300 322 325 321 320 316 317 322 328 334 339 345 348 350 352 353 347 342 343 300 224 200 194 191 197 199 200 202 204 203 204 204 209 206 201 200 198 192
260 251 243 244 252 264 296 314 311 311 312 312 313 317 326 328 337 346 352 356 354 354 356 352 356 341 213 196 190 188 201 202 198 199 200 202 205 204 209 205 201 201 196 191
252 237 238 238 241 253 280 299 302 307 310 313 315 319 326 328 334 350 355 358 356 355 356 359 359 23 126 168 181 188 195 196 198 199 200 202 205 207 207 203 200 196 195 192
243 238 238 237 240 251 272 283 292 299 306 309 315 320 323 322 326 348 355 359 2 359 358 359 2 25 125 161 173 186 194 196 197 196 198 198 202 203 200 199 195 193 193 194
242 236 237 237 235 239 260 274 285 293 301 307 314 322 329 323 329 350 356 357 2 3 2 1 3 29 89 177 185 187 192 197 196 194 195 196 199 196 194 196 196 196 197 200
239 238 240 241 238 239 252 267 279 289 296 304 312 325 332 333 340 358 1 0 2 2 5 11 17 39 79 164 183 183 186 191 190 191 193 194 195 196 197 199 201 203 206 210
238 236 238 241 242 243 250 263 275 283 294 305 313 321 329 324 337 354 2 3 2 4 10 21 33 56 89 130 162 173 175 181 185 190 193 197 200 199 201 204 209 210 212 217
240 234 234 235 238 246 247 261 273 285 295 306 312 321 331 337 338 348 0 6 4 8 13 24 39 56 80 122 152 166 176 180 184 190 195 198 200 204 208 212 216 216 218 222
250 232 228 231 231 241 250 262 273 282 291 299 305 314 326 340 340 337 356 4 2 2 9 21 36 55 69 100 143 165 176 182 189 194 196 200 206 210 213 216 218 222 225 228
267 246 228 235 239 242 254 265 267 274 284 292 298 304 315 329 341 339 346 359 358 351 352 15 25 35 57 101 141 167 178 187 193 199 203 207 209 212 216 218 221 226 231 234
257 255 233 236 243 246 252 259 262 272 281 287 290 295 305 317 330 337 340 353 353 347 334 334 336 351 3 69 153 171 191 198 204 207 210 213 216 217 219 222 226 232 237 240
241 249 245 237 244 249 253 255 261 269 277 283 283 291 297 306 314 324 333 342 339 333 322 310 305 293 285 277 228 210 208 207 213 218 222 223 224 224 228 231 235 239 243 246
237 241 245 241 241 245 252 254 258 266 275 278 281 288 293 294 297 307 317 325 322 321 318 301 291 282 274 271 252 234 232 227 227 229 228 228 229 233 237 240 243 246 247 250
238 240 241 243 244 248 251 254 259 266 273 275 278 282 283 289 295 301 309 313 314 311 314 303 282 275 266 267 263 251 242 239 241 246 244 239 240 242 245 249 250 251 252 254
237 239 241 243 245 246 250 253 259 266 268 268 273 278 279 287 293 296 302 305 310 302 294 294 287 277 270 269 269 263 255 253 255 257 255 254 254 253 254 258 258 257 258 260
237 239 241 243 245 247 248 252 258 262 263 264 268 275 279 283 287 289 291 293 295 290 285 283 280 276 270 268 266 265 263 263 263 265 265 262 264 264 262 263 265 265 263 264
236 239 242 242 244 247 248 250 254 257 258 262 266 270 274 277 280 285 285 283 284 277 277 279 276 274 272 269 269 267 265 266 267 268 269 267 270 270 268 268 269 270 268 269
235 238 242 243 244 246 249 251 253 255 257 262 265 265 268 269 272 275 275 275 274 272 273 273 274 275 275 273 272 272 271 271 271 271 272 271 272 273 271 270 270 270 270 272
236 237 239 241 242 245 245 248 250 253 255 258 262 264 266 268 266 268 270 267 269 271 271 271 273 276 276 277 278 278 278 279 278 278 279 279 278 277 275 275 275 275 275 276
236 236 238 240 241 243 244 245 248 251 252 254 258 260 266 260 257 265 265 265 267 268 273 273 273 276 277 278 280 280 280 281 282 281 283 283 282 282 281 281 282 280 279 278
236 236 238 241 242 243 242 242 245 248 252 254 256 261 261 257 255 258 262 265 268 272 273 272 272 273 275 277 277 279 281 281 282 283 285 285 285 286 286 286 288 284 282 281
237 238 238 240 242 242 242 242 243 248 251 253 254 255 258 252 251 253 259 264 267 272 270 267 269 272 274 276 278 279 282 282 283 283 284 285 286 287 287 286 287 285 284 284
241 240 240 241 244 243 241 243 244 245 248 249 252 254 254 247 248 250 253 258 262 266 268 269 270 271 274 276 279 280 282 283 284 285 285 285 286 286 287 287 287 286 285 284
244 240 240 241 242 244 244 245 245 246 246 246 248 250 245 245 248 247 251 257 260 263 267 269 271 273 275 277 279 282 283 283 284 285 286 286 286 287 287 287 287 286 286 286
244 242 242 241 240 241 244 245 245 246 242 242 242 248 247 245 244 245 253 259 262 265 267 269 272 275 277 278 280 281 283 284 286 286 287 287 287 288 288 288 288 288 288 288
240 241 240 237 238 236 238 239 243 238 234 238 241 238 236 238 242 249 256 262 266 267 269 271 273 275 277 280 282 283 284 285 286 286 287 287 287 288 288 288 289 289 289 288
Height
5888 5889 5888 5887 5887 5886 5884 5884 5883 5882 5880 5877 5874 5872 5870 5867 5864 5860 5855 5851 5847 5843 5840 5838 5835 5833 5834 5836 5838 5841 5842 5848 5852 5856 5859 5862 5865 5868 5869 5871 5873 5875 5876 5877
5884 5885 5884 5883 5883 5883 5882 5882 5882 5880 5878 5875 5872 5871 5868 5865 5862 5858 5854 5850 5847 5843 5840 5838 5836 5834 5833 5834 5837 5840 5843 5847 5850 5854 5857 5860 5863 5865 5868 5870 5872 5874 5875 5876
5880 5881 5879 5879 5879 5879 5879 5880 5879 5878 5876 5873 5871 5869 5867 5864 5861 5857 5853 5850 5847 5843 5840 5837 5835 5834 5833 5834 5837 5839 5842 5845 5849 5852 5855 5858 5861 5863 5866 5868 5870 5872 5874 5875
5875 5876 5875 5875 5876 5876 5876 5877 5876 5875 5874 5871 5870 5867 5865 5862 5860 5856 5852 5849 5846 5843 5839 5837 5835 5834 5834 5834 5836 5838 5841 5844 5847 5850 5853 5856 5859 5861 5864 5867 5869 5871 5872 5874
5871 5871 5871 5871 5872 5872 5873 5873 5873 5872 5871 5869 5867 5864 5863 5859 5857 5854 5851 5847 5844 5842 5839 5837 5835 5835 5834 5835 5835 5837 5839 5842 5845 5849 5851 5854 5857 5860 5863 5865 5867 5869 5871 5873
5867 5867 5867 5868 5868 5868 5869 5870 5869 5869 5868 5867 5864 5862 5860 5857 5856 5852 5849 5846 5843 5841 5839 5837 5836 5835 5835 5835 5835 5836 5838 5841 5844 5847 5850 5853 5856 5858 5861 5864 5866 5868 5869 5871
5862 5863 5863 5865 5865 5866 5866 5867 5866 5865 5865 5863 5861 5859 5858 5855 5853 5851 5848 5845 5842 5839 5838 5838 5837 5836 5835 5835 5835 5836 5838 5840 5843 5846 5849 5852 5855 5857 5860 5862 5864 5866 5867 5869
5857 5859 5860 5861 5862 5863 5863 5864 5864 5862 5861 5860 5858 5856 5856 5853 5851 5849 5847 5844 5842 5839 5838 5838 5837 5837 5836 5836 5836 5836 5837 5840 5843 5845 5848 5851 5853 5856 5858 5860 5862 5864 5865 5867
5853 5856 5856 5857 5857 5858 5859 5859 5860 5859 5857 5856 5855 5854 5853 5851 5850 5848 5846 5843 5842 5840 5839 5838 5838 5838 5837 5836 5836 5837 5838 5840 5842 5844 5846 5849 5851 5854 5856 5858 5860 5861 5862 5864
5849 5850 5853 5853 5853 5854 5855 5855 5855 5855 5854 5853 5852 5851 5851 5849 5848 5847 5845 5843 5842 5840 5839 5839 5838 5838 5837 5837 5837 5838 5838 5840 5841 5843 5845 5847 5849 5851 5853 5855 5857 5858 5859 5860
5842 5844 5847 5848 5848 5850 5851 5851 5851 5851 5851 5850 5848 5850 5848 5847 5847 5846 5844 5842 5841 5840 5839 5838 5838 5838 5838 5838 5838 5838 5838 5840 5842 5843 5845 5846 5848 5849 5851 5853 5854 5855 5856 5857
5834 5836 5838 5842 5844 5845 5845 5846 5847 5847 5847 5846 5845 5848 5845 5844 5844 5843 5842 5841 5840 5840 5839 5838 5837 5838 5838 5838 5838 5838 5839 5840 5841 5842 5843 5844 5845 5847 5848 5849 5850 5851 5852 5852
5828 5829 5831 5834 5838 5840 5840 5840 5841 5842 5842 5841 5841 5844 5841 5841 5840 5840 5839 5838 5838 5838 5837 5836 5836 5837 5837 5837 5837 5837 5838 5839 5839 5840 5841 5841 5842 5844 5845 5845 5846 5847 5847 5848
5821 5823 5825 5827 5830 5833 5834 5835 5836 5837 5837 5837 5837 5837 5837 5837 5837 5837 5836 5835 5835 5835 5835 5835 5835 5835 5835 5835 5836 5836 5836 5837 5837 5838 5838 5838 5839 5840 5840 5841 5841 5841 5842 5842
5814 5816 5817 5820 5823 5825 5827 5829 5830 5831 5831 5832 5832 5832 5833 5833 5833 5833 5833 5832 5832 5832 5832 5833 5832 5832 5832 5833 5833 5833 5833 5834 5834 5834 5834 5835 5835 5835 5835 5836 5836 5836 5836 5836
5806 5808 5811 5813 5816 5819 5820 5823 5824 5825 5826 5826 5827 5827 5828 5828 5829 5829 5829 5829 5829 5829 5829 5829 5829 5829 5830 5830 5830 5830 5830 5830 5830 5830 5830 5830 5830 5830 5830 5830 5830 5830 5829 5829
5797 5800 5803 5807 5810 5811 5814 5817 5818 5820 5820 5822 5822 5824 5824 5824 5825 5824 5824 5825 5825 5825 5825 5826 5826 5826 5826 5826 5826 5826 5827 5826 5826 5825 5825 5824 5824 5824 5824 5823 5823 5822 5821 5820
5789 5792 5794 5797 5802 5803 5810 5811 5812 5813 5814 5816 5817 5818 5818 5819 5820 5820 5820 5820 5820 5821 5821 5821 5822 5822 5821 5821 5821 5821 5821 5821 5821 5820 5819 5818 5818 5817 5816 5815 5814 5813 5812 5810
5779 5782 5784 5787 5790 5794 5800 5803 5804 5805 5806 5809 5810 5811 5812 5813 5814 5815 5815 5815 5815 5815 5816 5816 5817 5817 5816 5816 5816 5815 5815 5814 5814 5813 5812 5811 5810 5809 5808 5807 5805 5803 5802 5801
5768 5771 5775 5778 5781 5784 5792 5795 5796 5799 5798 5802 5803 5805 5806 5806 5808 5809 5809 5809 5810 5810 5811 5811 5811 5811 5810 5810 5810 5809 5809 5807 5806 5805 5804 5803 5802 5800 5799 5798 5796 5795 5793 5791
5758 5761 5764 5767 5771 5775 5781 5785 5788 5791 5793 5795 5796 5797 5798 5800 5802 5803 5804 5804 5805 5805 5805 5805 5805 5805 5804 5804 5803 5803 5802 5800 5799 5798 5797 5795 5794 5792 5791 5789 5787 5786 5784 5782
5749 5752 5755 5758 5761 5768 5772 5776 5780 5783 5785 5787 5789 5790 5791 5793 5794 5796 5797 5798 5799 5799 5799 5799 5799 5798 5798 5797 5797 5796 5795 5794 5792 5791 5789 5788 5786 5784 5782 5780 5778 5776 5773 5771
5741 5744 5747 5751 5756 5760 5763 5767 5771 5774 5777 5779 5781 5782 5784 5785 5787 5789 5791 5792 5793 5793 5793 5793 5793 5792 5792 5791 5790 5789 5787 5786 5784 5782 5781 5779 5777 5775 5772 5770 5768 5765 5763 5761
5735 5738 5741 5744 5748 5751 5755 5759 5762 5765 5768 5770 5773 5775 5776 5778 5780 5783 5784 5785 5786 5786 5787 5786 5786 5785 5784 5783 5782 5781 5779 5777 5776 5774 5771 5769 5767 5765 5762 5760 5757 5755 5752 5750
5731 5733 5735 5738 5741 5743 5746 5750 5754 5758 5760 5762 5765 5767 5769 5771 5773 5775 5777 5778 5779 5780 5780 5779 5779 5778 5777 5775 5774 5772 5771 5769 5767 5764 5762 5759 5757 5754 5752 5749 5746 5744 5741 5738
5728 5730 5732 5734 5736 5738 5741 5744 5748 5751 5752 5754 5758 5760 5762 5764 5767 5769 5770 5771 5772 5772 5772 5772 5771 5770 5769 5768 5766 5764 5762 5760 5758 5755 5752 5750 5747 5744 5741 5738 5735 5731 5728 5725